ヒル彗星

310P/Hill (2023)

English version
Home page
Updated on April 11, 2024

---------------------------------------------------------------------

・ プロフィール

・ 写真集

・ 軌道要素

Epoch 2024 Mar. 31.0 TT = JDT 2460400.5
T 2023 Oct. 23.46180 TT                                 Rudenko
q   2.4164444            (2000.0)            P               Q
n   0.11510930     Peri.   31.56638     +0.76290846     -0.64555226
a   4.1853243      Node     8.89931     +0.53578963     +0.60092922
e   0.4226387      Incl.   13.11938     +0.36180126     +0.47132404
P   8.56
>From 586 observations 2006 Aug. 29-2024 Mar. 18, mean residual 0".5.

・ 光度変化

        m1 = 12.3 + 5 logΔ + 13.0 log r

---------------------------------------------------------------------

軌道要素はM.P.E.C. 2024-F34に掲載されたものです。
光度グラフはComet for Windowsで作成したものです。

---------------------------------------------------------------------

Copyright(C) Seiichi Yoshida (comet@aerith.net). All rights reserved.